Location: *
(41.0833°N, 73.4167°W)
Time: 20:16:09
(UTC+00:00)

SL-16 R/B - Pass Details

Date: 22 October 2019
Orbit: 840 x 850 km, 71.0° (Epoch: 12 November)

Event Time Altitude Azimuth Distance (km) Brightness Sun altitude
Exits shadow 08:29:20 18° 158° (SSE) 1,975 4.2 -31.3°
Maximum altitude 08:32:50 34° 104° (ESE) 1,365 3.7 -30.7°
Drops below altitude 10° 08:37:52 10° 42° (NE) 2,472 5.2 -29.8°
Sets 08:40:31 0° 33° (NNE) 3,414 6.0 -29.3°
